Location: Ripley
(48.3812°N, 115.4473°W)
Time: 18:07:58
(UTC+00:00)

RS-15 - Pass Details

Date: 01 July 2022
Orbit: 1881 x 2163 km, 64.8° (Epoch: 11 August)

Event Time Altitude Azimuth Distance (km) Brightness Sun altitude
Rises 06:01:56 0° 316° (NW) 5,691 11.9 -14.8°
Reaches altitude 10° 06:05:29 10° 319° (NW) 4,692 11.2 -15.1°
Maximum altitude 06:17:52 66° 42° (NE) 2,298 8.5 -15.9°
Drops below altitude 10° 06:29:51 10° 125° (SE) 4,569 9.5 -16.5°
Enters shadow 06:30:10 - 125° (SE) 4,656 9.5 -16.5°
